Other Public Products
Issued by NWS Grand Forks, ND

Home | Current Version | Previous Version | Text Only | Print | Product List | Glossary Off
Versions: 1 2 3 4 5 6 7 8 9 10 11 12 13 14 15 16 17 18 19 20 21 22 23 24 25 26 27 28 29 30 31 32 33 34 35 36 37 38 39 40 41 42 43 44 45 46 47 48 49 50

000
FPUS83 KFGF 251410
OPUFGF
PRAIRIE TO PINES WEATHER ROUNDUP
NATIONAL WEATHER SERVICE EASTERN NORTH DAKOTA/GRAND FORKS ND
900 AM CDT SAT APR 25 2015

 **SATELLITE DATA USED TO AUGMENT SKY COVER AT AUTOMATED STATIONS**
 *****  WEATHER ACROSS EASTERN NORTH DAKOTA  *****

CITY           SKY/WX    TMP DP  RH WIND       PRES   REMARKS
GRAND FORKS    CLOUDY    46  34  61 E10       29.88R
GRAND FORKS AF CLOUDY    45  32  62 SE8       29.88R
GRAND CITY NWS   N/A     43 N/A N/A E10         N/A
BUXTON         NOT AVBL
DEVILS LAKE    CLOUDY    43  32  65 E12       29.85S
FARGO          CLOUDY    45  37  73 E9        29.84S
WAHPETON ARPT  CLOUDY    43  36  75 E9G16     29.84R
$$

 *****  WEATHER ACROSS CENTRAL AND WESTERN NORTH DAKOTA  *****

CITY           SKY/WX    TMP DP  RH WIND       PRES   REMARKS
JAMESTOWN      CLOUDY    42  38  85 E12       29.81S
BISMARCK       CLOUDY    44  41  89 E15       29.79R
MINOT          CLOUDY    41  39  93 E7        29.81S FOG
MINOT AFB      CLOUDY    40  40 100 E9        29.80S
GARRISON         N/A     43  41  93 SE14      29.78R
WILLISTON      CLOUDY    46  41  82 SE7       29.73S
DICKINSON      FOG       42  41  96 E15       29.71S VSB 1/4
HETTINGER      FOG       42  40  92 E12       29.73R VSB 1/2
$$

 *****  OTHER OBSERVATIONS NORTHEAST NORTH DAKOTA  *****

CITY           SKY/WX    TMP DP  RH WIND       PRES   REMARKS
WALHALLA       CLOUDY    36  36 100 N5        29.93R
LANGDON          N/A     43  34  70 E12       29.89R
CAVALIER       CLOUDY    39  32  75 N5        29.92R
GRAFTON        CLOUDY    45  32  61 E8        29.91R
CANDO          CLOUDY    45  34  65 SE12      29.87R
FORT TOTTEN    NOT AVBL
ROLLA          CLOUDY    41  37  87 SE8       29.87R
RUGBY          NOT AVBL
 ***** THE ABOVE OBSERVATIONS ARE NON NWS ARE NOT QUALITY
        CONTROLLED AND MAY MIS-REPORT RAIN FOR SNOW...
$$

 *****  OTHER OBSERVATIONS SOUTHEAST NORTH DAKOTA *****

CITY           SKY/WX    TMP DP  RH WIND       PRES   REMARKS
COOPERSTOWN    NOT AVBL
VALLEY CITY    CLOUDY    39  39 100 E10       29.83S FOG
OAKES            N/A     41  41 100 E14       29.80R FOG
GWINNER        CLOUDY    43  43 100 E9        29.82R VSB 1
SHEYENNE NWR     N/A     43  38  84 E12       29.95
BUFFALO        NOT AVBL
WYNDMERE       NOT AVBL
 ***** THE ABOVE OBSERVATIONS ARE NON NWS ARE NOT QUALITY
       CONTROLLED AND MAY MIS-REPORT RAIN FOR SNOW...
$$

  *****  WEATHER ACROSS NORTHERN MINNESOTA  *****

CITY           SKY/WX    TMP DP  RH WIND       PRES   REMARKS
FLAG ISLAND    CLOUDY    39  23  52 SE6       29.97S
WARROAD        CLOUDY    39  28  65 E7        29.96S
ROSEAU         CLOUDY    43  25  49 E9        29.95R
HALLOCK        CLOUDY    45  30  57 E10       29.92R
THF RVR FALLS  CLOUDY    43  28  56 E13       29.90S
HALSTAD        NOT AVBL
FOSSTON        CLOUDY    43  30  61 E9        29.89R
BAUDETTE         N/A     42  22  44 E13       29.96R
WASKISH        CLOUDY    41  25  52 CALM      29.94S
CROOKSTON      PTSUNNY   45  32  61 SE10      29.89S
$$
  *****  WEATHER ACROSS CENTRAL AND WEST MINNESOTA  *****

CITY           SKY/WX    TMP DP  RH WIND       PRES   REMARKS
BEMIDJI        PTSUNNY   41  28  58 E10       29.90S
PARK RAPIDS    CLOUDY    43  30  60 E12       29.87R
WADENA         CLOUDY    39  32  75 E8G18     29.85R
DETROIT LAKES  PTSUNNY   43  34  70 SE14      29.85F
MOORHEAD       CLOUDY    45  36  70 E10       29.86S
FERGUS FALLS   CLOUDY    43  34  70 SE10      29.86R
ELBOW LAKE     CLOUDY    41  38  89 E10       29.84R
MORRIS MN      PTSUNNY   43  41  93 E12       29.82R FOG
STAPLES        CLOUDY    43  32  65 E7G17     29.86S
WHEATON        PTSUNNY   39  39 100 E14       29.84R FOG
$$
  *****  WEATHER ELSEWHERE ACROSS MINNESOTA  *****

CITY           SKY/WX    TMP DP  RH WIND       PRES   REMARKS
DULUTH         CLOUDY    36  23  59 E15       29.95R
INTRNTL FALLS  CLOUDY    40  17  39 E12       29.97S
ELY            PTSUNNY   37   7  28 E8        29.98S
CLOQUET        CLOUDY    36  27  69 E14G21    29.95R
BRAINERD       CLOUDY    40  32  73 E8G16     29.89R
HIBBING        CLOUDY    39  21  48 E12       29.94S
ALEXANDRIA     CLOUDY    40  36  86 E12       29.84R
SAINT CLOUD    CLOUDY    43  36  76 E9G20     29.86R
MINNEAPOLIS    CLOUDY    44  37  76 E9        29.85R
$$

  *****  WEATHER ACROSS SOUTH DAKOTA  *****

CITY           SKY/WX    TMP DP  RH WIND       PRES   REMARKS
SIOUX FALLS    CLOUDY    46  41  82 E17       29.72R
BROOKINGS      CLOUDY    43  39  87 E17       29.75R
WATERTOWN      CLOUDY    42  40  92 E12G22    29.76R FOG
HURON          CLOUDY    47  44  90 E13       29.74R FOG
SISSETON         N/A     43  43 100 SE13      29.80R
ABERDEEN       CLOUDY    45  42  89 E10       29.78R FOG
MITCHELL       LGT RAIN  48  46  93 E8        29.72R FOG
PIERRE         FOG       45  44  97 NE13      29.71R VSB 1
MOBRIDGE       CLOUDY    45  43  93 E10       29.73R FOG
RAPID CITY     FOG       43  42  97 W7        29.70S VSB 1/4
$$

  *****  SOME WEATHER IN NEARBY STATES *****

CITY           SKY/WX    TMP DP  RH WIND       PRES   REMARKS
GLASGOW MT     PTSUNNY   48  40  73 NW23G31   29.64R
GREAT FALLS MT CLOUDY    38  34  85 S6        29.77S
CHEYENNE WY    SUNNY     46  32  58 W6        29.75S
SCOTTSBLUFF NE SUNNY     49  32  52 NW6       29.71R
OMAHA NE       LGT RAIN  49  46  90 NE13      29.57R FOG
DES MOINES IA  LGT RAIN  45  42  89 E22G32    29.58F FOG
DAVENPORT IA   CLOUDY    44  41  89 E23       29.67F FOG
CHICAGO IL     LGT RAIN  43  39  86 E14       29.78F
EAU CLAIRE WI  PTSUNNY   45  26  47 E12       29.87S
LA CROSSE WI   CLOUDY    43  36  76 E9        29.83S
$$

  *****  SOME NATIONAL WEATHER *****

CITY           SKY/WX    TMP DP  RH WIND       PRES   REMARKS
LA GUARDIA NY  PTSUNNY   46  24  42 NW15      29.87F
RALEIGH NC     CLOUDY    55  45  68 CALM      29.93S
ATLANTA GA     CLOUDY    61  58  90 S8        29.81F FOG
NEW ORLEANS LA MOSUNNY   79  72  79 S12       29.80F
OKLAHOMA CITY  SUNNY     64  49  57 W6        29.65R
ALBUQUERQUE NM MOSUNNY   48  36  63 CALM      29.98R
SALT LAKE CITY PTSUNNY   44  39  82 SW3       29.81S
LOS ANGELES CA CLOUDY    57  53  86 SW5       29.98S
BOISE ID       CLOUDY    43  34  70 CALM      29.80S
SEATTLE WA     MOCLDY    43  39  86 SE5       29.94R
$$

*** WEATHER ACROSS MANITOBA...SASKATCHEWAN AND ONTARIO ***
                ***ONTARIO***

CITY           SKY/WX    TMP DP  RH WIND       PRES   REMARKS
GERALDTON      MOSUNNY   34  19  55 VRB2      30.11S
THUNDER BAY    MOSUNNY   39  19  45 E9        30.08S
SIOUX LOOKOUT  PTSUNNY   37  19  48 SE5       30.05S
TORONTO        MOSUNNY   43  25  49 N5        29.98S
BIG TROUT LK   SUNNY     27  16  63 E5        30.18S WCI  21
PICKLE LAKE    MOSUNNY   34  18  51 E5        30.11S
DRYDEN         CLOUDY    37  21  52 E6        30.02S
KENORA         NOT AVBL
$$
                *** MANITOBA***

CITY           SKY/WX    TMP DP  RH WIND       PRES   REMARKS
BRANDON        MOSUNNY   39  34  81 NE10      29.91S
DAUPHIN        MOSUNNY   41  34  75 SE9       29.93S
ISLAND LAKE    MOSUNNY   32  16  51 SE8       30.09R WCI  25
PILOT MOUND      N/A     43  34  70 SE13        N/A
THE PAS        FRZ DRZL  27  25  93 N8        30.02R WCI  18
THOMPSON       LGT SNOW  27  23  86 NE6       30.07R WCI  20
WINNIPEG       PTSUNNY   43  28  56 SE9       29.96R
LYNN LAKE      SUNNY     25  14  63 N5        30.10S WCI  19
CHURCHILL      PTSUNNY   23  14  68 S8        30.25S WCI  14
GILLAM         PTSUNNY   27  18  69 E8        30.15F WCI  18
$$
                ***SASKATCHEWAN***

CITY           SKY/WX    TMP DP  RH WIND       PRES   REMARKS
ESTEVAN        CLOUDY    43  39  87 E15       29.78S FOG
KINDERSLEY     CLOUDY    28  28 100 NE18      29.80R WCI  16
LLOYDMINSTER   CLOUDY    32  21  64 E16G24    29.90R WCI  21
PRINCE ALBERT  CLOUDY    28  21  74 NE17      29.97S WCI  16
REGINA         LGT RAIN  43  43 100 SE12G18   29.76R FOG


USA.gov is the U.S. government's official web portal to all federal, state and local government web resources and services.